CAPE
0 0 0 0 0 0 0 0 0 0 0 0 4 0 2 3 1 0 3 0 1 0 0 0 0 2 7 7 6 6 15 19 16 16 44 21 0 2
0 0 0 0 0 2 5 7 9 9 5 3 9 0 1 0 0 0 1 0 0 2 0 0 0 1 1 12 8 11 14 33 42 41 53 57 44 21
0 0 0 0 0 2 4 1 5 15 15 3 0 0 2 3 2 0 0 0 0 0 0 0 0 2 1 1 2 1 3 7 18 15 20 41 56 69
0 0 0 0 0 0 5 1 8 14 19 8 0 1 2 2 0 0 0 0 0 0 0 0 4 0 0 0 1 2 1 1 2 1 2 5 9 9
0 0 0 0 0 1 2 6 9 0 5 6 7 3 3 1 2 0 0 0 0 0 0 0 0 1 0 0 0 0 0 0 0 0 0 0 3 7
0 0 0 0 0 3 3 2 3 3 5 5 8 3 2 2 1 1 1 0 0 0 0 0 0 0 0 0 0 0 0 0 0 0 0 0 0 0
0 0 0 0 0 0 1 3 1 2 5 5 3 2 1 1 1 0 0 0 0 0 0 0 0 0 0 0 0 0 0 0 0 0 0 0 0 0
0 0 0 0 0 0 0 0 0 3 2 2 2 1 0 0 0 0 0 0 0 0 0 0 0 0 0 0 0 0 0 0 0 0 0 0 0 0
0 0 3 1 0 3 1 0 0 0 0 1 2 1 0 0 0 0 0 0 0 0 0 0 0 0 0 0 0 0 0 0 0 0 0 0 0 0
0 1 3 1 0 0 0 0 0 0 0 0 1 1 0 0 0 0 0 0 0 0 0 0 0 0 0 0 0 0 0 0 0 0 0 0 0 0
2 4 4 0 0 0 0 0 0 0 0 0 0 0 0 0 0 0 0 0 0 0 0 0 0 0 0 0 0 0 0 0 0 0 1 2 3 0
2 2 1 0 0 1 0 0 0 0 0 0 0 0 0 0 0 0 0 3 0 0 0 0 0 0 0 0 0 0 0 0 0 0 0 0 0 0
2 1 1 2 0 4 0 0 0 0 0 0 0 0 0 0 0 0 0 1 0 0 0 0 0 0 0 0 0 0 0 0 0 0 0 0 0 0
1 0 0 1 1 0 0 0 0 0 0 0 0 0 0 0 0 0 0 0 0 0 0 0 3 0 0 0 0 0 0 0 0 0 0 0 0 0
1 0 0 0 6 0 1 0 0 0 0 0 0 0 0 0 0 0 0 0 0 0 0 0 2 0 0 0 0 0 0 0 0 0 0 0 0 0
0 0 0 0 0 1 6 7 0 0 0 0 0 0 0 0 0 0 0 0 0 0 0 2 1 0 0 0 0 0 0 0 0 0 0 0 0 0
0 0 0 0 0 0 5 6 5 0 0 0 0 0 0 0 0 0 0 0 0 0 0 1 1 1 1 1 0 0 0 0 0 0 1 0 0 0
0 0 0 0 0 0 0 0 2 2 0 0 0 0 0 0 0 0 0 0 0 0 0 0 1 1 0 0 0 0 0 0 0 1 1 0 0 0
0 0 0 0 0 0 0 0 0 0 0 1 2 2 0 0 0 0 0 0 0 0 0 0 2 1 0 0 0 0 0 1 1 0 0 1 1 1
0 0 0 0 0 0 0 0 0 0 0 0 1 3 3 1 0 0 0 0 0 0 0 2 1 1 0 0 0 0 0 2 3 3 4 2 2 0
0 0 0 0 4 0 0 0 0 0 0 0 1 1 1 2 0 0 0 0 0 0 0 0 0 0 1 0 0 0 0 0 0 7 4 3 3 0
0 0 0 0 4 5 0 0 0 0 0 1 0 1 1 1 0 0 0 0 0 0 0 0 0 1 2 0 0 1 2 1 0 0 2 3 4 3
0 0 0 0 3 5 1 0 0 0 0 1 0 0 1 1 0 0 0 0 0 0 0 0 1 3 2 1 4 4 3 3 3 4 4 1 4 3
CIN
-0 -0 -0 -0 -0 -0 -0 -0 -0 -0 -0 -0 -0 -0 -0 -0 -0 -0 -0 -0 -0 -0 -0 -0 -0 -0 -0 -0 -0 -11 -5 -1 -0 -0 -0 -0 -0 -2
-0 -0 -0 -0 -0 -0 -0 -0 -0 -0 -0 -0 -0 -0 -0 -0 -0 -0 -0 -0 -0 -0 -0 -0 -0 -0 -0 -0 -0 -5 -7 -0 -0 -0 -0 -0 -0 -0
-0 -0 -0 -0 -0 -0 -0 -0 -0 -0 -0 -14 -0 -0 -0 -0 -0 -0 -0 -0 -0 -0 -0 -0 -0 -0 -0 -0 -0 -0 -0 -28 -8 -7 -4 -0 -0 -5
-0 -0 -0 -0 -0 -0 -0 -0 -0 -0 -0 -0 -0 -0 -0 -0 -0 -0 -0 -0 -0 -0 -0 -0 -0 -0 -0 -0 -0 -0 -0 -0 -0 -0 -0 -0 -0 -5
-0 -0 -0 -0 -0 -0 -0 -0 -0 -0 -0 -0 -0 -0 -0 -0 -0 -0 -0 -0 -0 -0 -0 -0 -0 -0 -0 -0 -0 -0 -0 -0 -0 -0 -0 -0 -0 -0
-0 -0 -0 -0 -0 -0 -0 -0 -0 -2 -0 -0 -1 -0 -0 -0 -0 -0 -0 -0 -0 -0 -0 -0 -0 -0 -0 -0 -0 -0 -0 -0 -0 -0 -0 -0 -0 -0
-0 -0 -0 -0 -0 -0 -0 -0 -0 -0 -0 -0 -0 -0 -0 -0 -0 -0 -0 -0 -0 -0 -0 -0 -0 -0 -0 -0 -0 -0 -0 -0 -0 -0 -0 -0 -0 -0
-0 -0 -0 -0 -0 -0 -0 -0 -0 -0 -0 -0 -0 -0 -0 -0 -0 -0 -0 -0 -0 -0 -0 -0 -0 -0 -0 -0 -0 -0 -0 -0 -0 -0 -0 -0 -0 -0
-0 -0 -0 -0 -0 -0 -0 -0 -0 -0 -0 -0 -0 -0 -0 -0 -0 -0 -0 -0 -0 -0 -0 -0 -0 -0 -0 -0 -0 -0 -0 -0 -0 -0 -0 -0 -0 -0
-0 -0 -0 -0 -0 -0 -0 -0 -0 -0 -0 -0 -0 -0 -0 -0 -0 -0 -0 -0 -0 -0 -0 -0 -0 -0 -0 -0 -0 -0 -0 -0 -0 -0 -0 -0 -0 -0
-0 -0 -0 -0 -0 -0 -0 -0 -0 -0 -0 -0 -0 -0 -0 -0 -0 -0 -0 -0 -0 -0 -0 -0 -0 -0 -0 -0 -0 -0 -0 -0 -0 -0 -0 -0 -0 -0
-0 -0 -0 -0 -0 -0 -0 -0 -0 -0 -0 -0 -0 -0 -0 -0 -0 -0 -0 -0 -0 -0 -0 -0 -0 -0 -0 -0 -0 -0 -0 -0 -0 -0 -0 -0 -0 -0
-0 -0 -0 -0 -0 -0 -0 -0 -0 -0 -0 -0 -0 -0 -0 -0 -0 -0 -0 -0 -0 -0 -0 -0 -0 -0 -0 -0 -0 -0 -0 -0 -0 -0 -0 -0 -0 -0
-0 -0 -0 -0 -0 -0 -0 -0 -0 -0 -0 -0 -0 -0 -0 -0 -0 -0 -0 -0 -0 -0 -0 -0 -0 -0 -0 -0 -0 -0 -0 -0 -0 -0 -0 -0 -0 -0
-0 -0 -0 -0 -0 -0 -0 -0 -0 -0 -0 -0 -0 -0 -0 -0 -0 -0 -0 -0 -0 -0 -0 -0 -0 -0 -0 -0 -0 -0 -0 -0 -0 -0 -0 -0 -0 -0
-0 -0 -0 -0 -0 -0 -0 -0 -0 -0 -0 -0 -0 -0 -0 -0 -0 -0 -0 -0 -0 -0 -0 -0 -0 -0 -0 -0 -0 -0 -0 -0 -0 -0 -0 -0 -0 -0
-0 -0 -0 -0 -0 -0 -0 -0 -0 -0 -0 -0 -0 -0 -0 -0 -0 -0 -0 -0 -0 -0 -0 -0 -0 -0 -0 -0 -0 -0 -0 -0 -0 -0 -0 -0 -0 -0
-0 -0 -0 -0 -0 -0 -0 -0 -0 -0 -0 -0 -0 -0 -0 -0 -0 -0 -0 -0 -0 -0 -0 -0 -0 -0 -0 -0 -0 -0 -0 -0 -0 -0 -0 -0 -0 -0
-0 -0 -0 -0 -0 -0 -0 -0 -0 -0 -0 -0 -0 -0 -0 -0 -0 -0 -0 -0 -0 -0 -0 -0 -0 -0 -0 -0 -0 -0 -0 -0 -0 -0 -0 -0 -0 -0
-0 -0 -0 -0 -0 -0 -0 -0 -0 -0 -0 -0 -0 -0 -0 -0 -0 -0 -0 -0 -0 -0 -0 -0 -0 -0 -0 -0 -0 -0 -0 -0 -0 -0 -0 -0 -0 -0
-0 -0 -0 -0 -0 -0 -0 -0 -0 -0 -0 -0 -0 -0 -0 -0 -0 -0 -0 -0 -0 -0 -0 -0 -0 -0 -0 -0 -0 -0 -0 -0 -0 -0 -0 -0 -0 -0
-0 -0 -0 -0 -0 -0 -0 -0 -0 -0 -0 -0 -0 -0 -0 -0 -0 -0 -0 -0 -0 -0 -0 -0 -0 -0 -0 -0 -0 -0 -0 -0 -0 -0 -0 -0 -0 -0
-0 -0 -0 -0 -0 -0 -0 -0 -0 -0 -0 -0 -0 -0 -0 -0 -0 -0 -0 -0 -0 -0 -0 -0 -0 -0 -0 -0 -0 -0 -0 -0 -0 -0 -0 -0 -0 -0
Wind_Speed
6 6 5 3 4 4 4 5 5 3 5 4 3 1 2 3 3 2 2 5 4 4 4 5 5 8 8 8 9 10 11 12 13 13 16 12 15 16
5 6 6 4 4 4 4 5 6 7 6 2 2 0 1 1 3 2 3 3 3 3 3 3 5 7 8 9 9 10 11 12 14 16 16 17 12 16
7 7 7 5 4 4 5 5 5 6 7 1 1 1 2 3 3 2 1 2 2 4 4 2 1 4 7 10 9 7 10 12 13 14 17 19 18 7
8 7 7 5 7 6 5 7 6 5 5 6 4 3 2 1 2 3 2 2 1 3 2 1 0 4 4 7 7 9 11 11 11 12 14 16 19 19
7 7 7 7 6 5 6 6 5 3 4 3 3 1 1 2 2 2 2 1 0 2 2 4 4 4 4 6 6 8 9 9 9 10 11 13 15 18
6 5 6 7 7 7 6 6 4 5 5 5 3 3 2 2 1 2 3 2 1 1 1 2 2 3 6 5 4 6 6 7 8 8 9 11 12 12
6 6 6 4 1 2 4 6 6 5 4 4 2 2 3 2 3 2 2 2 2 3 4 4 3 3 3 2 1 4 5 6 6 6 6 7 9 9
7 6 5 5 6 7 6 3 3 5 4 3 2 4 4 3 3 3 2 3 3 3 5 4 3 3 2 1 1 2 3 4 4 2 3 4 5 6
7 7 7 5 5 6 6 6 5 3 2 4 5 5 3 5 4 4 3 3 2 3 3 3 2 3 2 3 1 2 3 3 3 3 2 3 3 4
6 6 8 8 7 7 5 4 4 3 2 3 5 3 2 3 4 4 5 4 3 3 3 3 2 3 3 3 1 3 2 1 3 3 3 4 4 4
5 8 8 9 10 11 6 6 5 4 4 3 4 4 5 4 3 4 4 4 3 3 3 2 2 2 3 3 2 4 2 2 3 4 4 4 6 4
6 7 11 8 12 13 7 8 7 6 6 5 5 5 5 6 4 2 3 4 2 2 3 3 3 2 2 2 3 3 3 3 6 4 3 3 2 1
6 6 6 13 13 14 12 7 6 6 7 5 4 3 3 4 2 1 2 2 2 2 2 3 1 1 1 1 2 3 3 3 3 3 1 1 1 2
7 6 7 14 14 14 12 7 8 7 5 5 5 5 4 4 3 2 3 2 3 1 3 1 2 1 1 1 2 1 3 3 3 3 2 2 2 3
7 8 10 14 14 11 14 11 11 6 6 6 5 4 4 3 5 4 4 4 3 3 3 1 1 2 1 1 1 2 2 3 3 3 3 3 4 3
9 7 9 10 12 10 9 10 7 6 6 6 5 4 5 4 5 4 4 4 3 3 3 2 1 2 2 3 3 3 3 2 2 3 3 3 4 5
9 5 6 8 8 8 8 9 8 7 7 5 5 5 5 5 5 4 4 4 3 3 3 4 4 3 3 3 4 5 5 4 4 4 4 5 5 6
5 7 8 7 8 9 8 9 8 9 7 6 6 5 5 6 6 5 4 4 4 4 3 3 4 3 3 7 12 6 4 4 3 4 4 4 5 5
7 8 9 8 8 8 8 8 8 7 6 6 6 6 5 5 7 6 5 5 5 4 4 4 4 4 4 4 2 13 4 3 3 4 4 5 6 5
8 9 9 9 9 8 8 8 7 7 7 7 6 6 6 6 6 6 6 6 6 5 5 5 5 6 6 3 2 2 11 5 4 5 5 6 7 13
9 9 8 9 9 8 8 7 8 7 7 7 6 7 6 6 7 6 6 10 9 5 6 7 6 8 2 1 3 4 5 15 12 6 4 5 7 7
7 9 9 8 8 8 8 7 7 8 7 7 7 7 7 7 7 7 7 7 8 7 6 3 4 5 5 6 7 7 5 4 7 14 16 12 5 5
8 9 8 8 8 8 8 8 8 7 8 8 7 7 7 7 7 7 7 7 6 6 7 6 5 6 7 7 8 7 9 8 6 7 7 16 20 24
Wind_Direction
186 188 207 196 198 213 214 221 224 255 268 253 245 208 164 176 135 135 126 79 72 81 71 48 28 17 15 13 10 17 23 12 11 360 354 274 253 252
175 193 203 195 197 204 214 218 226 247 256 253 194 70 168 142 126 177 120 96 61 54 50 31 9 20 13 24 21 28 32 24 28 23 5 359 262 242
184 197 199 190 196 207 215 219 228 233 244 188 74 339 239 176 137 116 112 86 50 14 348 346 3 50 44 29 18 33 38 30 23 27 16 17 12 253
184 192 203 193 212 217 213 227 232 232 237 245 173 188 206 167 150 159 120 64 31 322 308 342 73 61 67 48 15 24 42 39 30 32 25 22 24 42
184 188 198 200 211 202 208 221 213 209 225 242 202 143 167 162 154 141 152 93 41 14 65 67 83 82 94 74 33 28 26 29 35 31 31 29 28 40
172 184 194 202 211 202 202 215 216 216 223 229 223 187 180 152 162 166 192 200 187 215 59 35 58 43 113 73 37 29 23 19 17 27 33 35 28 44
169 184 193 196 101 202 208 210 211 215 211 213 201 177 183 176 196 180 199 153 219 227 234 208 206 206 167 126 108 49 27 25 17 12 27 44 40 36
180 194 192 190 199 191 187 186 223 216 213 201 196 222 216 192 168 172 143 176 227 194 238 213 219 213 215 231 63 53 35 36 31 16 38 56 51 45
176 183 188 184 175 177 146 152 130 111 314 234 232 228 235 193 151 168 187 187 219 126 206 235 223 210 189 184 359 117 81 52 34 58 78 93 91 90
189 183 197 175 176 169 163 165 196 187 206 219 241 239 196 141 173 185 194 186 134 158 187 244 171 207 186 195 214 185 139 80 64 73 89 95 98 103
196 202 207 191 181 178 175 166 182 174 126 106 92 94 133 141 174 169 171 186 201 204 192 267 153 186 199 188 144 153 150 126 122 108 90 84 96 86
200 205 208 196 187 185 191 198 195 190 178 152 123 109 137 124 134 246 171 200 196 203 165 215 186 180 193 188 191 178 164 78 90 90 81 61 61 309
209 207 207 201 197 202 200 205 203 171 180 178 165 154 164 157 166 121 117 196 180 221 142 181 193 153 265 136 201 199 206 181 196 192 187 303 260 314
213 213 205 201 198 203 191 196 177 181 183 185 190 187 186 177 157 139 104 93 79 70 138 120 100 211 205 160 227 209 221 226 220 226 224 221 245 262
223 212 193 194 200 200 194 187 186 189 192 193 199 192 179 154 129 136 118 109 109 114 132 102 175 166 212 252 306 216 219 204 221 227 222 235 244 235
199 196 190 188 194 206 195 188 200 198 196 201 192 175 144 163 183 174 172 170 195 176 151 148 171 197 212 235 249 264 223 259 194 226 225 229 238 237
167 161 181 188 191 196 202 199 196 199 199 196 184 178 173 173 182 177 188 178 210 183 179 178 188 228 255 256 248 237 247 239 241 244 243 258 251 245
160 176 191 191 193 194 197 199 198 200 199 191 194 186 179 184 183 183 188 195 205 203 200 178 179 206 237 227 220 247 252 254 253 227 244 268 269 240
188 190 193 190 196 197 196 197 194 198 176 189 190 185 180 183 188 191 194 200 206 216 209 195 204 219 239 253 128 213 235 231 235 240 240 247 271 277
196 195 198 194 196 197 193 195 194 180 189 191 190 185 183 185 192 197 200 203 209 206 208 205 214 213 226 243 272 132 218 242 237 263 264 268 269 274
197 193 198 196 195 198 195 189 189 188 185 184 187 186 185 188 198 201 203 203 203 207 220 225 218 212 193 112 242 237 219 219 244 251 267 275 285 290
194 196 192 191 196 195 190 186 187 191 190 190 189 186 186 189 197 196 203 201 206 213 225 221 151 176 195 218 249 269 258 247 233 242 244 240 255 269
195 197 191 191 194 189 186 184 190 188 191 189 190 186 182 188 199 197 200 203 206 208 206 203 198 196 218 227 249 265 267 262 254 257 247 235 247 255